Location: Roswell
(33.3943°N, 104.5230°W)
Time: 07:36:30
(UTC+00:00)

Tiros 1 - Pass Details

Date: 14 November 2024
Orbit: 622 x 653 km, 48.4° (Epoch: 06 December)

Event Time Altitude Azimuth Distance (km) Brightness Sun altitude
Rises 00:18:59 0° 263° (W) 2,937 12.7 -5.2°
Reaches altitude 10° 00:21:35 10° 275° (W) 2,036 11.0 -5.8°
Maximum altitude 00:25:36 27° 334° (NNW) 1,234 8.7 -6.6°
Drops below altitude 10° 00:29:39 10° 33° (NNE) 2,054 9.3 -7.4°
Enters shadow 00:30:59 - 40° (NE) 2,501 9.7 -7.6°
